Date String (YYYY-MM-DD hh:mm:ss) UTC,Instrument flags,Ambient pressure (hPa),Sample flow (lpm),Bypass flow (lpm),Sample temperature (°C),Ambient temperature (°C),ASC tube jacket temperature (°C),LED temperature (°C),Box temperature (°C),Sample RH (%),Span deviation,Mass concentration (μg/m³),Mass concentration (μg/m³),Mass concentration (μg/m³)
DateTimeUTC,F1_M11,P_M11,Q1_M11,Q2_M11,T1_M11,T2_M11,T3_M11,T4_M11,T5_M11,U1_M11,ZSPAN_M11,X2_M11,X0_M11,X1_M11
2021-11-15 16:00:00,,0828.2,5.00,0.00,28.7,27.8,00.0,37.6,30.4,08.1,0000.0,0000.48,0001.22,0000.29
2021-11-15 16:01:00,,0828.3,4.99,0.00,28.7,27.8,00.0,37.6,30.4,08.1,0000.0,0000.46,0000.89,0000.30
2021-11-15 16:02:00,,0828.2,5.00,0.00,28.7,27.8,00.0,37.6,30.4,08.0,0000.0,0000.45,0000.84,0000.30
2021-11-15 16:03:00,,0828.3,4.99,0.00,28.7,27.8,00.0,37.6,30.5,08.0,0000.0,0000.46,0000.90,0000.29
2021-11-15 16:04:00,,0828.3,5.00,0.00,28.7,27.9,00.0,37.6,30.5,08.1,0000.0,0000.46,0001.01,0000.29
2021-11-15 16:05:00,,0828.2,5.01,0.00,28.8,27.9,00.0,37.6,30.5,08.2,0000.0,0000.46,0001.00,0000.30
2021-11-15 16:06:00,,0828.2,5.00,0.00,28.8,27.9,00.0,37.7,30.5,08.1,0000.0,0000.47,0001.01,0000.29
2021-11-15 16:07:00,,0828.3,5.01,0.00,28.8,28.0,00.0,37.7,30.6,07.9,0000.0,0000.49,0001.02,0000.29
2021-11-15 16:08:00,,0828.3,5.00,0.00,28.8,28.0,00.0,37.7,30.5,07.9,0000.0,0000.47,0000.97,0000.28
2021-11-15 16:09:00,,0828.3,5.01,0.00,28.8,28.0,00.0,37.7,30.6,07.8,0000.0,0000.46,0001.05,0000.29
2021-11-15 16:10:00,,0828.3,5.00,0.00,28.8,28.0,00.0,37.7,30.6,07.8,0000.0,0000.43,0001.67,0000.27
2021-11-15 16:11:00,,0828.3,4.99,0.00,28.8,28.0,00.0,37.7,30.6,07.8,0000.0,0000.44,0001.69,0000.27
2021-11-15 16:12:00,,0828.2,5.01,0.00,28.9,28.0,00.0,37.7,30.6,07.7,0000.0,0000.44,0001.70,0000.27
2021-11-15 16:13:00,,0828.2,5.00,0.00,28.9,28.0,00.0,37.8,30.6,07.7,0000.0,0000.44,0001.69,0000.27
2021-11-15 16:14:00,,0828.2,5.00,0.00,28.9,28.1,00.0,37.8,30.7,07.7,0000.0,0000.42,0001.66,0000.26
2021-11-15 16:15:00,,0828.2,5.01,0.00,28.9,28.1,00.0,37.8,30.7,07.7,0000.0,0000.45,0001.63,0000.26
2021-11-15 16:16:00,,0828.2,5.00,0.00,28.9,28.1,00.0,37.8,30.7,07.8,0000.0,0000.45,0001.64,0000.26
2021-11-15 16:17:00,,0828.2,5.00,0.00,29.0,28.1,00.0,37.8,30.7,07.9,0000.0,0000.45,0001.65,0000.27
2021-11-15 16:18:00,,0828.2,4.99,0.00,29.0,28.1,00.0,37.8,30.8,07.9,0000.0,0000.44,0001.83,0000.27
2021-11-15 16:19:00,,0828.2,5.00,0.00,29.0,28.2,00.0,37.9,30.8,07.7,0000.0,0000.43,0001.85,0000.27
2021-11-15 16:20:00,,0828.2,5.00,0.00,29.0,28.2,00.0,37.9,30.8,07.7,0000.0,0000.42,0001.76,0000.27
2021-11-15 16:21:00,,0828.2,5.00,0.00,29.0,28.2,00.0,37.9,30.8,07.7,0000.0,0000.43,0000.94,0000.27
2021-11-15 16:22:00,,0828.2,5.00,0.00,29.1,28.3,00.0,37.9,30.8,07.6,0000.0,0000.45,0002.05,0000.27
2021-11-15 16:23:00,,0828.2,5.00,0.00,29.1,28.3,00.0,37.9,30.9,07.6,0000.0,0000.45,0002.10,0000.28
2021-11-15 16:24:00,,0828.2,5.01,0.00,29.1,28.3,00.0,38.0,30.9,07.5,0000.0,0000.47,0002.18,0000.27
2021-11-15 16:25:00,,0828.2,4.99,0.00,29.1,28.3,00.0,38.0,30.9,07.5,0000.0,0000.49,0003.15,0000.27
2021-11-15 16:26:00,,0828.2,4.99,0.00,29.1,28.3,00.0,38.0,30.9,07.4,0000.0,0000.47,0003.20,0000.27
2021-11-15 16:27:00,,0828.1,5.00,0.00,29.1,28.3,00.0,38.0,30.9,07.4,0000.0,0000.51,0003.32,0000.27
2021-11-15 16:28:00,,0828.2,5.00,0.00,29.2,28.4,00.0,38.0,30.9,07.5,0000.0,0000.51,0003.32,0000.26
2021-11-15 16:29:00,,0828.2,4.99,0.00,29.2,28.4,00.0,38.1,31.0,07.5,0000.0,0000.51,0003.17,0000.26
2021-11-15 16:30:00,,0828.2,5.02,0.00,29.2,28.4,00.0,38.1,31.0,07.6,0000.0,0000.52,0003.93,0000.26
2021-11-15 16:31:00,,0828.2,5.01,0.00,29.2,28.4,00.0,38.1,31.0,07.6,0000.0,0000.52,0004.48,0000.27
2021-11-15 16:32:00,,0828.2,5.00,0.00,29.3,28.5,00.0,38.1,31.0,07.5,0000.0,0000.51,0004.47,0000.27
2021-11-15 16:33:00,,0828.2,5.00,0.00,29.3,28.5,00.0,38.1,31.1,07.7,0000.0,0000.49,0003.32,0000.27
2021-11-15 16:34:00,,0828.3,4.99,0.00,29.3,28.5,00.0,38.2,31.1,07.4,0000.0,0000.48,0003.31,0000.27
2021-11-15 16:35:00,,0828.3,5.00,0.00,29.3,28.5,00.0,38.2,31.1,07.3,0000.0,0000.48,0003.83,0000.27
2021-11-15 16:36:00,,0828.3,5.02,0.00,29.3,28.6,00.0,38.2,31.2,07.3,0000.0,0000.47,0003.10,0000.27
2021-11-15 16:37:00,,0828.3,4.99,0.00,29.4,28.6,00.0,38.2,31.2,07.3,0000.0,0000.45,0003.02,0000.27
2021-11-15 16:38:00,,0828.4,5.00,0.00,29.4,28.7,00.0,38.2,31.2,07.3,0000.0,0000.41,0002.94,0000.28
2021-11-15 16:39:00,,0828.3,5.00,0.00,29.4,28.7,00.0,38.3,31.2,07.2,0000.0,0000.40,0002.93,0000.28
2021-11-15 16:40:00,,0828.3,5.01,0.00,29.4,28.7,00.0,38.3,31.2,07.0,0000.0,0000.38,0003.76,0000.27
2021-11-15 16:41:00,,0828.4,5.01,0.00,29.5,28.7,00.0,38.3,31.3,06.9,0000.0,0000.37,0003.41,0000.27
2021-11-15 16:42:00,,0828.4,5.01,0.00,29.5,28.8,00.0,38.3,31.3,06.9,0000.0,0000.37,0002.82,0000.27
2021-11-15 16:43:00,,0828.4,5.00,0.00,29.5,28.8,00.0,38.4,31.3,06.9,0000.0,0000.37,0002.90,0000.26
2021-11-15 16:44:00,,0828.5,5.01,0.00,29.5,28.8,00.0,38.4,31.3,07.0,0000.0,0000.37,0003.60,0000.26
2021-11-15 16:45:00,,0828.4,4.99,0.00,29.6,28.8,00.0,38.4,31.3,06.9,0000.0,0000.39,0003.73,0000.26
2021-11-15 16:46:00,,0828.5,5.01,0.00,29.6,28.8,00.0,38.4,31.4,06.9,0000.0,0000.41,0003.25,0000.25
2021-11-15 16:47:00,,0828.5,5.00,0.00,29.6,28.8,00.0,38.4,31.4,07.0,0000.0,0000.39,0002.92,0000.25
2021-11-15 16:48:00,,0828.5,4.98,0.00,29.6,28.8,00.0,38.4,31.4,07.6,0000.0,0000.39,0003.01,0000.25
2021-11-15 16:49:00,,0828.5,5.01,0.00,29.6,28.9,00.0,38.5,31.4,07.2,0000.0,0000.43,0003.60,0000.25
2021-11-15 16:50:00,,0828.5,5.00,0.00,29.6,28.9,00.0,38.5,31.4,07.0,0000.0,0000.45,0003.82,0000.25
2021-11-15 16:51:00,,0828.5,5.00,0.00,29.6,28.9,00.0,38.5,31.4,07.0,0000.0,0000.47,0002.92,0000.25
2021-11-15 16:52:00,,0828.6,5.00,0.00,29.7,28.9,00.0,38.5,31.4,07.3,0000.0,0000.48,0002.64,0000.25
2021-11-15 16:53:00,,0828.5,5.01,0.00,29.7,28.9,00.0,38.5,31.5,07.9,0000.0,0000.49,0002.68,0000.25
2021-11-15 16:54:00,,0828.5,4.98,0.00,29.7,28.9,00.0,38.6,31.5,07.9,0000.0,0000.48,0002.58,0000.25
2021-11-15 16:55:00,,0828.5,5.02,0.00,29.7,28.9,00.0,38.6,31.5,07.8,0000.0,0000.49,0001.88,0000.25
2021-11-15 16:56:00,,0828.5,5.01,0.00,29.7,28.9,00.0,38.6,31.5,07.8,0000.0,0000.48,0001.78,0000.25
2021-11-15 16:57:00,,0828.5,5.01,0.00,29.7,28.9,00.0,38.6,31.4,07.8,0000.0,0000.44,0001.66,0000.25
2021-11-15 16:58:00,,0828.5,5.00,0.00,29.7,28.9,00.0,38.6,31.4,07.9,0000.0,0000.46,0001.69,0000.25
2021-11-15 16:59:00,,0828.5,4.99,0.00,29.7,28.9,00.0,38.6,31.4,07.8,0000.0,0000.50,0001.63,0000.25
